Miscellaneous Local Product
Issued by NWS Hastings, NE

Home | Current Version | Previous Version | Graphics & Text | Print | Product List | Glossary On
Versions: 1 2 3 4 5 6 7 8 9 10 11 12 13 14 15 16 17 18 19 20 21 22 23 24 25 26 27 28 29 30 31 32 33 34 35 36 37 38 39 40 41 42 43 44 45 46 47 48 49 50
000
AXUS43 KGID 301802
MISGRI

GID CWA HOURLY WEATHER ROUNDUP
NATIONAL WEATHER SERVICE HASTINGS NE
100 PM CDT MON MAR 30 2015

NOTE: "FAIR" INDICATES FEW OR NO CLOUDS BELOW 12,000 FEET WITH NO
SIGNIFICANT WEATHER AND/OR OBSTRUCTIONS TO VISIBILITY.

...SOUTH CENTRAL NEBRASKA...

CITY           SKY/WX    TMP DP  RH WIND       PRES   REMARKS
GRAND ISLAND   PTSUNNY   71  28  20 W25G33    30.03F
HASTINGS       MOSUNNY   70  31  23 SW15G29   30.02F
KEARNEY        SUNNY     70  27  19 SW16G26   30.02F
ORD            PTSUNNY   69  24  18 NW7G17    29.99F
YORK           MOSUNNY   68  28  22 SW21G26   30.03F
AURORA         MOSUNNY   70  28  21 SW21G28   30.02F
LEXINGTON      SUNNY     68  28  22 W10       30.04F
HOLDREGE       SUNNY     69  27  21 SW16G22   30.03F
HEBRON         SUNNY     68  25  19 SW16G25   30.07F

...NEBRASKA PANHANDLE...

CITY           SKY/WX    TMP DP  RH WIND       PRES   REMARKS
CHADRON        MOSUNNY   66  28  24 W14G21    30.09R
ALLIANCE       SUNNY     69  25  19 N16G28    30.09S
SCOTTSBLUFF    SUNNY     69  25  19 NW13G21   30.12F
SIDNEY         SUNNY     69  21  16 N15       30.12F

...WESTERN AND NORTH CENTRAL NEBRASKA...

CITY           SKY/WX    TMP DP  RH WIND       PRES   REMARKS
VALENTINE      MOSUNNY   69  26  20 N18G30    30.02S
AINSWORTH      SUNNY     71  22  16 N14G24    30.01S
ONEILL         MOSUNNY   69  26  19 W13G22    29.99F
BROKEN BOW     PTSUNNY   69  27  20 N7        30.02F
IMPERIAL         N/A     71  24  17 N10G23    30.07S
NORTH PLATTE   SUNNY     67  29  24 W7        30.04F
MCCOOK         SUNNY     73  25  16 NW5       30.03F

...EASTERN NEBRASKA...

CITY           SKY/WX    TMP DP  RH WIND       PRES   REMARKS
NORFOLK        CLOUDY    71  25  17 W21G31    29.96F
SO SIOUX CITY  MOSUNNY   74  23  15 W24G32    29.92F
TEKAMAH        MOSUNNY   75  26  16 W21G31    29.96F
COLUMBUS       MOSUNNY   70  28  21 SW17G25   30.02F
ALBION         PTSUNNY   69  21  16 SW16G28   30.00F
OMAHA EPPLEY   PTSUNNY   71  24  17 SW17G26   30.00F
MILLARD        MOSUNNY   69  28  22 SW16G22   30.03F
LINCOLN        SUNNY     71  27  19 SW23G30   30.04F
NEBRASKA CITY  SUNNY     69  21  16 SW22G28   30.06F
BEATRICE       SUNNY     68  31  25 SW16G23   30.07F
FALLS CITY     SUNNY     72  23  16 SW17G26   30.07F

...NORTHERN KANSAS...

CITY           SKY/WX    TMP DP  RH WIND       PRES   REMARKS
GOODLAND       SUNNY     75  20  12 NW20G26   30.07F
HILL CITY      SUNNY     76  29  17 SW21G28   30.03F
NORTON         CLEAR     75  19  12 W13G18    30.01F
PHILLIPSBURG   SUNNY     77  30  18 SW20G28   30.04F
SMITH CENTER   SUNNY     72  34  25 S17G24    30.06F
BELOIT         SUNNY     73  32  21 SW18G26   30.06F
HAYS           SUNNY     73  34  23 SW24G30   30.06F
RUSSELL        SUNNY     72  35  25 S24G35    30.05F
CONCORDIA      SUNNY     72  30  21 SW17G26   30.07F
SALINA         SUNNY     73  34  23 S17G29    30.10F
TOPEKA         SUNNY     68  28  22 S10G20    30.12F



USA.gov is the U.S. government's official web portal to all federal, state and local government web resources and services.